Regional Weather Roundup
Issued by NWS

Home | Current Version | Previous Version | Graphics & Text | Print | Product List | Glossary On
Versions: 1 2 3 4 5 6 7 8 9 10 11 12 13 14 15 16 17 18 19 20 21 22 23 24 25 26 27 28 29 30 31 32 33 34 35 36 37 38 39 40 41 42 43 44 45 46 47 48 49 50
000
ASUS45 KBOI 172010
RWRID
WEATHER ROUNDUP FOR IDAHO
NATIONAL WEATHER SERVICE BOISE ID
200 PM MDT FRI APR 17 2015

NOTE: "FAIR" INDICATES FEW OR NO CLOUDS BELOW 12000 FEET
WITH NO SIGNIFICANT WEATHER AND/OR OBSTRUCTIONS TO VISIBILITY

IDZ012-014-172100-
SOUTHWEST IDAHO


CITY           SKY/WX    TMP DP  RH WIND       PRES   REMARKS
BOISE          SUNNY     65  30  27 NW7       30.13F
CALDWELL       SUNNY     66  36  32 N7        30.15F
MOUNTAIN HOME  MOSUNNY   66  29  24 VRB1      30.13F
$$

IDZ016-017-172100-
SOUTHCENTRAL IDAHO


CITY           SKY/WX    TMP DP  RH WIND       PRES   REMARKS
BURLEY         SUNNY     63  23  21 VRB6      30.12F
JEROME         SUNNY     61  26  26 VRB6      30.14F
TWIN FALLS     SUNNY     64  27  24 VRB7      30.14F
$$

IDZ019>023-172100-
SOUTHEAST IDAHO


CITY           SKY/WX    TMP DP  RH WIND       PRES   REMARKS
IDAHO FALLS    SUNNY     62  20  19 NE6       30.11F
POCATELLO      MOSUNNY   60  26  27 NE3       30.13F
REXBURG        SUNNY     62  21  20 CALM      30.10F
$$

IDZ006-010-011-018-031-032-172100-
CENTRAL IDAHO MOUNTAINS


CITY           SKY/WX    TMP DP  RH WIND       PRES   REMARKS
MCCALL         SUNNY     62  20  19 W12       30.13F
HAILEY         SUNNY     63  27  25 SE13      30.15F
STANLEY          N/A     60   8  12 N7        30.18F
SALMON         SUNNY     61  25  25 CALM      30.11F
CHALLIS        SUNNY     60  17  18 CALM      30.13F
$$

IDZ002-004-006-007-026-172100-
NORTHERN IDAHO


CITY           SKY/WX    TMP DP  RH WIND       PRES   REMARKS
LEWISTON       SUNNY     65  40  39 CALM      30.14F
LOWELL           N/A     69  40  34 S7        30.09F
COEUR D`ALENE  SUNNY     63  34  34 SW3       30.16F
MULLAN PASS    SUNNY     53  25  33 MISG      30.18F
$$


USA.gov is the U.S. government's official web portal to all federal, state and local government web resources and services.